Погода в Махибаду

Мальдивы     3°45′27″N   72°58′06″E
темп.,
°C
ветер,
м/с
пор.,
м/с
влажн.,
%
обл.,
%
осадки,
мм/ч
давл.,
гПа
погр.,
м
16 мая, вс
вс1623:00+28зюз91179100 6.3 1009913
02:00+29з9117398 0.5 10061093
05:00+29з101274100 0.7 10061222
08:00+30з91174100 1.9 10091219
11:00+29з91076100 4.3 10081042
14:00+29з91176100 1.1 10061098
17:00+29з9107785 2.1 10061031
20:00+29з8978100 0.1 1009915
17 мая, пн
пн1723:00+29з7977100 0.6 1009900
02:00+29з897736 0.0 1007989
05:00+29з8976100 0.1 10071036
08:00+29з797688 0.1 1009991
11:00+30з78745 0.3 10091051
14:00+30з7972100 0.0 10071138
17:00+30з7875100 0.4 1007893
20:00+30з787548 1.6 1009974
18 мая, вт
вт1823:00+29з78765 2.1 1009831
02:00+29зюз89765 0.8 10071007
05:00+29зюз787515 1.6 1007956
08:00+29зюз777610 0.4 1009960
11:00+29зюз777610 0.8 1009910
14:00+29зюз787588 0.3 10071040
17:00+29з787544 1.0 1007993
20:00+29з7776100 0.6 1010924
19 мая, ср
ср1923:00+29зюз787699 1.3 1010936
02:00+29зюз7876100 0.9 1008915
05:00+29зюз787691 1.6 1008942
08:00+29зюз777593 0.1 10091019
11:00+29зюз777579 0.2 1009971
14:00+29зюз787518 0.1 10071023
17:00+29зюз78757 0.3 10071029
20:00+29з7874100 1.3 1009945
20 мая, чт
чт2023:00+29зюз7774100 2.7 1010950
02:00+29зюз787698 0.4 1008938
05:00+29зюз7875100 0.9 1008955
08:00+29зюз7874100 0.3 1010996
11:00+29зюз7876100 2.3 1010820
14:00+29зюз6772100 0.8 1008916
17:00+29зюз787593 2.3 1008868
20:00+29зюз897394 0.0 10101104